TimeEDT,TemperatureF,Dew PointF,Humidity,Sea Level PressureIn,VisibilityMPH,Wind Direction,Wind SpeedMPH,Gust SpeedMPH,PrecipitationIn,Events,Conditions,WindDirDegrees,DateUTC
12:53 AM,46.9,36.0,66,29.95,10.0,North,8.1,-,N/A,,Scattered Clouds,350,2012-10-29 04:53:00
1:53 AM,46.0,35.1,66,29.94,10.0,NNW,8.1,-,N/A,,Clear,330,2012-10-29 05:53:00
2:53 AM,46.0,34.0,63,29.94,10.0,NNW,10.4,18.4,N/A,,Clear,340,2012-10-29 06:53:00
3:53 AM,45.0,33.1,63,29.94,10.0,North,-9999.0,-,N/A,,Clear,0,2012-10-29 07:53:00
4:53 AM,44.1,33.1,65,29.94,10.0,NW,11.5,-,N/A,,Mostly Cloudy,310,2012-10-29 08:53:00
5:53 AM,43.0,32.0,65,29.94,10.0,NW,11.5,-,N/A,,Overcast,310,2012-10-29 09:53:00
6:53 AM,42.1,32.0,67,29.95,10.0,NNW,9.2,-,N/A,,Clear,330,2012-10-29 10:53:00
7:53 AM,41.0,32.0,70,29.96,10.0,NW,10.4,-,N/A,,Clear,320,2012-10-29 11:53:00
8:53 AM,43.0,32.0,65,29.96,10.0,NNW,12.7,-,N/A,,Clear,330,2012-10-29 12:53:00
9:53 AM,46.0,32.0,58,29.97,10.0,NNW,12.7,-,N/A,,Clear,340,2012-10-29 13:53:00
10:53 AM,48.9,30.0,48,29.96,10.0,NW,18.4,29.9,N/A,,Clear,320,2012-10-29 14:53:00
11:53 AM,51.1,30.9,46,29.96,10.0,NW,12.7,23.0,N/A,,Clear,320,2012-10-29 15:53:00
12:53 PM,52.0,30.9,45,29.95,10.0,NW,15.0,24.2,N/A,,Partly Cloudy,320,2012-10-29 16:53:00
1:53 PM,53.1,28.9,40,29.94,10.0,NNW,15.0,25.3,N/A,,Partly Cloudy,330,2012-10-29 17:53:00
2:53 PM,55.0,28.9,37,29.91,10.0,NW,18.4,28.8,N/A,,Partly Cloudy,310,2012-10-29 18:53:00
3:53 PM,55.9,27.0,33,29.88,10.0,NNW,15.0,26.5,N/A,,Clear,330,2012-10-29 19:53:00
4:53 PM,55.0,27.0,34,29.87,10.0,NW,17.3,25.3,N/A,,Partly Cloudy,310,2012-10-29 20:53:00
5:53 PM,53.1,26.1,35,29.86,10.0,NW,12.7,21.9,N/A,,Clear,320,2012-10-29 21:53:00
6:53 PM,50.0,26.1,39,29.86,10.0,NW,10.4,20.7,N/A,,Clear,320,2012-10-29 22:53:00
7:53 PM,48.0,25.0,41,29.87,10.0,WNW,6.9,-,N/A,,Clear,300,2012-10-29 23:53:00
8:53 PM,48.0,21.0,34,29.86,10.0,NW,9.2,-,N/A,,Clear,320,2012-10-30 00:53:00
9:53 PM,48.0,19.9,33,29.85,10.0,NW,13.8,20.7,N/A,,Clear,310,2012-10-30 01:53:00
10:53 PM,48.0,23.0,37,29.83,10.0,NW,11.5,23.0,N/A,,Clear,320,2012-10-30 02:53:00
11:53 PM,46.9,26.1,44,29.82,10.0,NW,11.5,20.7,N/A,,Clear,320,2012-10-30 03:53:00